AAL1653 KLAS-KSAN

Flight info

Callsign AAL1653
Flight time 0h 44m
Altitude 30000
Route RADYR2 LVELL LUCKI1
Aircraft B738/M-VGDW/C

Departure

Time 2026-05-05 16:34
Airport Harry Reid International Airport (KLAS)

Arrival

Time 2026-05-05 17:18
Airport San Diego International Airport (KSAN)
Time Latitude Longitude Altitude Speed Heading
2026-05-05 16:17 36.08051 -115.13650 2190 ft 0 kts 44°
2026-05-05 16:26 36.08030 -115.13674 2188 ft 3 kts 44°
2026-05-05 16:26 36.08007 -115.13709 2188 ft 3 kts 97°
2026-05-05 16:27 36.08011 -115.13724 2187 ft 0 kts 131°
2026-05-05 16:29 36.08004 -115.13715 2187 ft 5 kts 140°
2026-05-05 16:29 36.07939 -115.13646 2188 ft 14 kts 136°
2026-05-05 16:29 36.07869 -115.13562 2188 ft 14 kts 135°
2026-05-05 16:29 36.07827 -115.13456 2190 ft 17 kts 91°
2026-05-05 16:30 36.07828 -115.13300 2188 ft 19 kts 90°
2026-05-05 16:30 36.07828 -115.13143 2191 ft 18 kts 90°
2026-05-05 16:30 36.07828 -115.12993 2191 ft 17 kts 90°
2026-05-05 16:30 36.07828 -115.12846 2187 ft 17 kts 90°
2026-05-05 16:31 36.07828 -115.12705 2189 ft 16 kts 89°
2026-05-05 16:31 36.07829 -115.12568 2187 ft 18 kts 90°
2026-05-05 16:31 36.07829 -115.12402 2187 ft 21 kts 89°
2026-05-05 16:31 36.07801 -115.12225 2188 ft 22 kts 128°
2026-05-05 16:32 36.07742 -115.12140 2188 ft 4 kts 138°
2026-05-05 16:32 36.07721 -115.12127 2189 ft 7 kts 160°
2026-05-05 16:32 36.07659 -115.12128 2190 ft 11 kts 191°
2026-05-05 16:32 36.07641 -115.12211 2189 ft 13 kts 279°
2026-05-05 16:33 36.07643 -115.12245 2188 ft 0 kts 269°
2026-05-05 16:33 36.07643 -115.12246 2188 ft 2 kts 269°
2026-05-05 16:33 36.07643 -115.12521 2188 ft 69 kts 270°
2026-05-05 16:33 36.07642 -115.13402 2188 ft 135 kts 270°
2026-05-05 16:34 36.07648 -115.14776 2351 ft 176 kts 267°
2026-05-05 16:34 36.07678 -115.16389 2889 ft 197 kts 268°
2026-05-05 16:34 36.07747 -115.18085 3690 ft 198 kts 271°
2026-05-05 16:34 36.07785 -115.19834 4240 ft 213 kts 268°
2026-05-05 16:35 36.07612 -115.21748 4519 ft 235 kts 255°
2026-05-05 16:35 36.07175 -115.23754 5007 ft 245 kts 253°
2026-05-05 16:35 36.06447 -115.25682 5573 ft 253 kts 227°
2026-05-05 16:35 36.04983 -115.26965 5992 ft 270 kts 200°
2026-05-05 16:36 36.03181 -115.27678 6779 ft 271 kts 197°
2026-05-05 16:36 36.01428 -115.28387 7643 ft 273 kts 198°
2026-05-05 16:36 35.99577 -115.29186 8128 ft 288 kts 198°
2026-05-05 16:36 35.97645 -115.29906 8929 ft 289 kts 192°
2026-05-05 16:37 35.95694 -115.30391 10048 ft 282 kts 189°
2026-05-05 16:37 35.93781 -115.30819 10891 ft 284 kts 189°
2026-05-05 16:37 35.91786 -115.31260 11320 ft 302 kts 190°
2026-05-05 16:37 35.89636 -115.31764 11510 ft 326 kts 190°
2026-05-05 16:38 35.87318 -115.32322 11678 ft 350 kts 190°
2026-05-05 16:38 35.84903 -115.32910 12067 ft 364 kts 191°
2026-05-05 16:38 35.82382 -115.33530 12719 ft 370 kts 191°
2026-05-05 16:38 35.79842 -115.34154 13514 ft 372 kts 190°
2026-05-05 16:39 35.77277 -115.34783 14112 ft 378 kts 190°
2026-05-05 16:39 35.74716 -115.35410 14780 ft 381 kts 191°
2026-05-05 16:39 35.72099 -115.36050 15382 ft 386 kts 191°
2026-05-05 16:39 35.69446 -115.36699 16019 ft 389 kts 191°
2026-05-05 16:40 35.66767 -115.37354 16633 ft 393 kts 191°
2026-05-05 16:40 35.64071 -115.38013 17255 ft 397 kts 191°
2026-05-05 16:40 35.61332 -115.38671 17835 ft 402 kts 189°
2026-05-05 16:40 35.58559 -115.38863 18328 ft 407 kts 178°
2026-05-05 16:41 35.55703 -115.38645 18872 ft 410 kts 176°
2026-05-05 16:41 35.52851 -115.38370 19438 ft 412 kts 175°
2026-05-05 16:41 35.49977 -115.38096 19993 ft 414 kts 176°
2026-05-05 16:41 35.47094 -115.37844 20512 ft 417 kts 176°
2026-05-05 16:42 35.44191 -115.37611 21034 ft 419 kts 176°
2026-05-05 16:42 35.41300 -115.37394 21538 ft 422 kts 177°
2026-05-05 16:42 35.38363 -115.37183 22100 ft 422 kts 177°
2026-05-05 16:42 35.35421 -115.36976 22613 ft 424 kts 179°
2026-05-05 16:43 35.32472 -115.36769 23179 ft 425 kts 177°
2026-05-05 16:43 35.29503 -115.36561 23571 ft 429 kts 179°
2026-05-05 16:43 35.26511 -115.36348 23945 ft 432 kts 178°
2026-05-05 16:43 35.23504 -115.36135 24342 ft 433 kts 178°
2026-05-05 16:44 35.20487 -115.35923 24732 ft 435 kts 178°
2026-05-05 16:44 35.17447 -115.35709 25090 ft 438 kts 178°
2026-05-05 16:44 35.14440 -115.35499 25570 ft 437 kts 179°
2026-05-05 16:44 35.11391 -115.35283 25915 ft 439 kts 179°
2026-05-05 16:45 35.08311 -115.35068 26159 ft 443 kts 178°
2026-05-05 16:45 35.05227 -115.34853 26481 ft 446 kts 178°
2026-05-05 16:45 35.02120 -115.34637 26796 ft 448 kts 178°
2026-05-05 16:45 34.99031 -115.34423 27082 ft 451 kts 179°
2026-05-05 16:46 34.95883 -115.34204 27484 ft 450 kts 179°
2026-05-05 16:46 34.92757 -115.33985 27985 ft 448 kts 179°
2026-05-05 16:46 34.86478 -115.33551 28021 ft 451 kts 179°
2026-05-05 16:47 34.80291 -115.33125 28008 ft 445 kts 180°
2026-05-05 16:47 34.77215 -115.33398 28000 ft 441 kts 196°
2026-05-05 16:47 34.74320 -115.34594 28020 ft 440 kts 202°
2026-05-05 16:48 34.68573 -115.37210 28017 ft 441 kts 202°
2026-05-05 16:48 34.62837 -115.39769 28008 ft 441 kts 202°
2026-05-05 16:49 34.57061 -115.42300 28004 ft 440 kts 201°
2026-05-05 16:49 34.54172 -115.43560 28000 ft 440 kts 201°
2026-05-05 16:49 34.51321 -115.44802 28005 ft 439 kts 201°
2026-05-05 16:50 34.45563 -115.47310 28002 ft 438 kts 201°
2026-05-05 16:50 34.39827 -115.49806 28006 ft 436 kts 202°
2026-05-05 16:51 34.34158 -115.52268 28007 ft 433 kts 202°
2026-05-05 16:51 34.28854 -115.55523 28024 ft 427 kts 215°
2026-05-05 16:52 34.23843 -115.59410 28018 ft 427 kts 213°
2026-05-05 16:52 34.18653 -115.62848 28022 ft 429 kts 204°
2026-05-05 16:53 34.13021 -115.65398 28028 ft 434 kts 203°
2026-05-05 16:53 34.07336 -115.67967 28030 ft 436 kts 204°
2026-05-05 16:54 34.01682 -115.70612 28025 ft 434 kts 204°
2026-05-05 16:54 33.96077 -115.73257 28020 ft 433 kts 204°
2026-05-05 16:55 33.90484 -115.75899 28015 ft 432 kts 205°
2026-05-05 16:55 33.84923 -115.78636 28027 ft 430 kts 205°
2026-05-05 16:56 33.79420 -115.81348 28028 ft 429 kts 205°
2026-05-05 16:56 33.73882 -115.84018 28032 ft 428 kts 204°
2026-05-05 16:57 33.68306 -115.86612 28039 ft 428 kts 204°
2026-05-05 16:57 33.65569 -115.87882 28025 ft 416 kts 204°
2026-05-05 16:57 33.62944 -115.89102 28011 ft 400 kts 205°
2026-05-05 16:58 33.60402 -115.90286 28010 ft 383 kts 205°
2026-05-05 16:58 33.57967 -115.91424 28009 ft 367 kts 206°
2026-05-05 16:58 33.55588 -115.92536 27292 ft 369 kts 205°
2026-05-05 16:58 33.53175 -115.93720 25915 ft 378 kts 210°
2026-05-05 16:59 33.51028 -115.95530 24627 ft 385 kts 227°
2026-05-05 16:59 33.49346 -115.97929 24240 ft 370 kts 234°
2026-05-05 16:59 33.47855 -116.00460 23753 ft 370 kts 236°
2026-05-05 16:59 33.46419 -116.03021 23186 ft 371 kts 237°
2026-05-05 17:00 33.44972 -116.05606 22670 ft 376 kts 237°
2026-05-05 17:00 33.43497 -116.08209 22151 ft 384 kts 236°
2026-05-05 17:00 33.41981 -116.10850 21611 ft 383 kts 236°
2026-05-05 17:00 33.40472 -116.13456 21116 ft 379 kts 236°
2026-05-05 17:01 33.38973 -116.16036 20621 ft 375 kts 236°
2026-05-05 17:01 33.37486 -116.18588 20133 ft 372 kts 236°
2026-05-05 17:01 33.36010 -116.21120 19665 ft 369 kts 236°
2026-05-05 17:01 33.34531 -116.23619 19179 ft 367 kts 232°
2026-05-05 17:02 33.32680 -116.25652 18743 ft 367 kts 214°
2026-05-05 17:02 33.30435 -116.27089 18367 ft 365 kts 209°
2026-05-05 17:02 33.28145 -116.28410 17921 ft 363 kts 208°
2026-05-05 17:02 33.25868 -116.29703 17470 ft 361 kts 207°
2026-05-05 17:03 33.23597 -116.30999 17043 ft 358 kts 208°
2026-05-05 17:03 33.21385 -116.32270 16676 ft 356 kts 208°
2026-05-05 17:03 33.19127 -116.33577 16293 ft 362 kts 208°
2026-05-05 17:03 33.16860 -116.34897 15881 ft 363 kts 208°
2026-05-05 17:04 33.14586 -116.36225 15468 ft 362 kts 210°
2026-05-05 17:04 33.12353 -116.37530 15082 ft 361 kts 208°
2026-05-05 17:04 33.10088 -116.38856 14694 ft 361 kts 209°
2026-05-05 17:04 33.07828 -116.40173 14297 ft 361 kts 209°
2026-05-05 17:05 33.05571 -116.41486 13897 ft 360 kts 209°
2026-05-05 17:05 33.03329 -116.42790 13439 ft 356 kts 208°
2026-05-05 17:05 33.01142 -116.44071 13040 ft 351 kts 210°
2026-05-05 17:05 32.99129 -116.45641 12652 ft 342 kts 222°
2026-05-05 17:06 32.97350 -116.47493 12275 ft 336 kts 225°
2026-05-05 17:06 32.95594 -116.49331 11901 ft 332 kts 224°
2026-05-05 17:06 32.93857 -116.51131 11540 ft 330 kts 224°
2026-05-05 17:06 32.92122 -116.52907 11175 ft 327 kts 223°
2026-05-05 17:07 32.90420 -116.54641 10823 ft 324 kts 223°
2026-05-05 17:07 32.88700 -116.56380 10462 ft 322 kts 223°
2026-05-05 17:07 32.86998 -116.58097 10125 ft 319 kts 223°
2026-05-05 17:07 32.85320 -116.59781 10014 ft 308 kts 223°
2026-05-05 17:08 32.83736 -116.61373 9994 ft 295 kts 223°
2026-05-05 17:08 32.82202 -116.62916 9892 ft 280 kts 223°
2026-05-05 17:08 32.80755 -116.64371 9653 ft 267 kts 223°
2026-05-05 17:08 32.79340 -116.65797 9190 ft 265 kts 223°
2026-05-05 17:09 32.77952 -116.67197 8704 ft 263 kts 224°
2026-05-05 17:09 32.76794 -116.68841 8235 ft 258 kts 243°
2026-05-05 17:09 32.75963 -116.70692 7840 ft 254 kts 243°
2026-05-05 17:09 32.75116 -116.72538 7454 ft 252 kts 243°
2026-05-05 17:10 32.74268 -116.74351 7156 ft 250 kts 242°
2026-05-05 17:10 32.73424 -116.76154 6912 ft 250 kts 243°
2026-05-05 17:10 32.72578 -116.77954 6656 ft 250 kts 242°
2026-05-05 17:10 32.71710 -116.79782 6412 ft 256 kts 242°
2026-05-05 17:11 32.70834 -116.81626 6175 ft 253 kts 243°
2026-05-05 17:11 32.70138 -116.83496 6109 ft 242 kts 250°
2026-05-05 17:11 32.69589 -116.85318 5976 ft 230 kts 251°
2026-05-05 17:11 32.69063 -116.87072 5567 ft 229 kts 251°
2026-05-05 17:12 32.68531 -116.88874 5128 ft 229 kts 251°
2026-05-05 17:12 32.68019 -116.90636 4783 ft 222 kts 252°
2026-05-05 17:12 32.67527 -116.92324 4498 ft 210 kts 252°
2026-05-05 17:12 32.67363 -116.93965 4212 ft 196 kts 284°
2026-05-05 17:13 32.67780 -116.95419 4040 ft 181 kts 285°
2026-05-05 17:13 32.68073 -116.96826 3808 ft 169 kts 283°
2026-05-05 17:13 32.68349 -116.98104 3638 ft 154 kts 284°
2026-05-05 17:13 32.68627 -116.99323 3470 ft 153 kts 284°
2026-05-05 17:14 32.68911 -117.00533 3297 ft 150 kts 284°
2026-05-05 17:14 32.69193 -117.01716 3117 ft 149 kts 285°
2026-05-05 17:14 32.69473 -117.02888 2949 ft 148 kts 285°
2026-05-05 17:14 32.69756 -117.04066 2784 ft 149 kts 284°
2026-05-05 17:15 32.70038 -117.05235 2563 ft 146 kts 284°
2026-05-05 17:15 32.70318 -117.06395 2395 ft 146 kts 284°
2026-05-05 17:15 32.70602 -117.07573 2256 ft 150 kts 284°
2026-05-05 17:15 32.70886 -117.08756 2019 ft 148 kts 284°
2026-05-05 17:16 32.71169 -117.09922 1791 ft 146 kts 285°
2026-05-05 17:16 32.71451 -117.11093 1559 ft 149 kts 285°
2026-05-05 17:16 32.71734 -117.12276 1295 ft 148 kts 285°
2026-05-05 17:16 32.72012 -117.13438 1052 ft 147 kts 285°
2026-05-05 17:17 32.72291 -117.14603 839 ft 144 kts 285°
2026-05-05 17:17 32.72570 -117.15744 573 ft 145 kts 287°
2026-05-05 17:17 32.72852 -117.16878 313 ft 146 kts 287°
2026-05-05 17:17 32.73130 -117.18029 69 ft 140 kts 286°
2026-05-05 17:18 32.73383 -117.19071 23 ft 117 kts 285°
2026-05-05 17:18 32.73542 -117.19737 26 ft 40 kts 285°
2026-05-05 17:18 32.73616 -117.20042 22 ft 33 kts 286°
2026-05-05 17:18 32.73606 -117.20207 22 ft 16 kts 206°
2026-05-05 17:19 32.73562 -117.20222 25 ft 0 kts 195°
2026-05-05 17:20 32.73544 -117.20228 22 ft 7 kts 196°
2026-05-05 17:20 32.73478 -117.20251 22 ft 12 kts 195°
2026-05-05 17:21 32.73424 -117.20284 22 ft 3 kts 253°
2026-05-05 17:21 32.73423 -117.20295 22 ft 0 kts 262°
2026-05-05 17:21 32.73419 -117.20328 22 ft 0 kts 262°